Home > Time Zones > World Clock > Weather > Germany > Ulm > Past weeks

Flag for Germany Weather past 2 weeks in Ulm, Baden-Württemberg, Germany

Now
50 °F

Fog.


Feels Like: 50 °F
Forecast: 47 / 64 °F
Wind: 1 mph from East

Location: Laupheim Airport

Current Time: Oct 2, 2014 at 5:25:07 AM

Latest Report: Oct 2, 2014 at 4:20 AM


Visibility: 0 mi

Pressure: 30.36 "Hg

Humidity: 100%

Dew point: 50 °F

Location of UlmLocation

Historic Weather in Ulm — Graph

°F

Ulm temperature yesterday

Maximum temperature yesterday: 68 °F (at 5:00 PM)
Minimum temperature yesterday: 55 °F (at 6:20 AM)
Average temperature yesterday: 60 °F

Past Weeks' High & Low Weather Summary

 TemperatureHumidityPressure
High75 °F (Sep 19, 2:45 PM)100% (Sep 17, 4:20 AM)30.36 "Hg (Sep 17, 4:20 AM)
Low36 °F (Sep 24, 6:20 AM)52% (Sep 26, 4:20 PM)29.89 "Hg (Sep 24, 4:20 PM)
Average55 °F89%30.15 "Hg
* Reported Sep 17 4:20 AM — Oct 2 4:20 AM, Ulm, Weather by CustomWeather, © 2014

Note: Actual official high and low records may vary slightly from our data, if they occured in-between our weather recording intervals... More about our weather records

Advertising

Ulm weather history for previous 24 hours

 ConditionsComfort  
Time TempWeatherWind HumidityBarometerVisibility
4:20 AM
Oct 2
50 °FFog.1 mph100%30.36 "Hg0 mi
3:20 AM50 °FFog.2 mph100%30.36 "Hg0 mi
2:20 AM52 °FFog.1 mph100%30.36 "Hg0 mi
1:20 AM54 °FFog.2 mph100%30.36 "Hg0 mi
12:49 AM54 °FFog.No wind100%30.36 "Hg0 mi
12:20 AM54 °FFog.1 mph100%30.36 "Hg2 mi
11:20 PM
Oct 1
55 °FPassing clouds.1 mph100%30.36 "HgN/A
10:20 PM57 °FPassing clouds.1 mph94%30.36 "HgN/A
9:20 PM57 °FPassing clouds.2 mph94%30.36 "HgN/A
8:20 PM57 °FPassing clouds.1 mph94%30.36 "HgN/A
7:20 PM59 °FPartly sunny.3 mph88%30.33 "HgN/A
6:20 PM63 °FSprinkles. Broken clouds.7 mph83%30.33 "HgN/A
5:20 PM66 °FScattered clouds.1 mph68%30.30 "HgN/A
5:00 PM68 °FScattered clouds.2 mph60%30.30 "HgN/A
4:20 PM66 °FPassing clouds.2 mph64%30.30 "HgN/A
3:20 PM64 °FPartly sunny.1 mph68%30.30 "HgN/A
2:20 PM63 °FPartly sunny.5 mph77%30.33 "HgN/A
1:20 PM64 °FPartly sunny.3 mph73%30.33 "HgN/A
12:20 PM64 °FScattered clouds.3 mph78%30.33 "HgN/A
11:20 AM61 °FScattered clouds.5 mph88%30.33 "Hg5 mi
10:20 AM59 °FFog.2 mph94%30.33 "Hg3 mi
9:20 AM57 °FFog.1 mph94%30.33 "Hg2 mi
8:48 AM57 °FFog.No wind94%30.33 "Hg2 mi
8:20 AM55 °FFog.2 mph100%30.30 "Hg1 mi
7:20 AM55 °FFog.1 mph100%30.30 "Hg1 mi
6:20 AM55 °FFog.1 mph100%30.30 "Hg1 mi
5:20 AM57 °FFog.1 mph100%30.30 "Hg0 mi
Weather by CustomWeather, © 2014

See weather overviewHow to use our weather pages